Time,TemperatureF,DewpointF,PressureIn,WindDirection,WindDirectionDegrees,WindSpeedMPH,WindSpeedGustMPH,Humidity,HourlyPrecipIn,Conditions,Clouds,dailyrainin,SoftwareType,DateUTC
2013-08-13 00:01:00,77.4,73.9,30.02,North,0,0.0,0.0,89,0.00,-RA,,0.00,WeatherDisplay:10.37,2013-08-13 04:01:00,
2013-08-13 00:06:00,77.4,73.9,30.01,North,0,0.0,0.0,89,0.00,-RA,,0.00,WeatherDisplay:10.37,2013-08-13 04:06:00,
2013-08-13 00:11:00,77.4,73.9,30.01,North,0,0.0,0.0,89,0.00,-RA,,0.00,WeatherDisplay:10.37,2013-08-13 04:11:00,
2013-08-13 00:16:00,77.4,73.9,30.01,North,0,0.0,0.0,89,0.00,-RA,,0.00,WeatherDisplay:10.37,2013-08-13 04:16:00,
2013-08-13 00:21:00,77.4,73.2,30.01,North,0,0.0,0.0,87,0.00,-RA,,0.00,WeatherDisplay:10.37,2013-08-13 04:21:00,
2013-08-13 00:26:00,77.4,73.2,30.01,North,0,0.0,0.0,87,0.00,-RA,,0.00,WeatherDisplay:10.37,2013-08-13 04:26:00,
2013-08-13 00:31:00,77.2,73.0,30.01,North,0,0.0,0.0,87,0.00,-RA,,0.00,WeatherDisplay:10.37,2013-08-13 04:31:00,
2013-08-13 00:36:00,76.8,72.7,30.01,North,0,0.0,0.0,87,0.00,-RA,,0.00,WeatherDisplay:10.37,2013-08-13 04:36:00,
2013-08-13 00:41:00,76.8,72.7,30.00,North,0,0.0,0.0,87,0.00,-RA,,0.00,WeatherDisplay:10.37,2013-08-13 04:41:00,
2013-08-13 00:46:00,76.8,72.7,30.00,North,0,0.0,0.0,87,0.00,-RA,,0.00,WeatherDisplay:10.37,2013-08-13 04:46:00,
2013-08-13 00:51:00,76.6,72.8,30.00,North,0,0.0,0.0,88,0.00,-RA,,0.00,WeatherDisplay:10.37,2013-08-13 04:51:00,
2013-08-13 00:56:00,76.6,73.2,30.01,North,0,0.0,0.0,89,0.00,-RA,,0.00,WeatherDisplay:10.37,2013-08-13 04:56:00,
2013-08-13 01:01:00,76.6,72.8,30.01,North,0,0.0,0.0,88,0.00,-RA,,0.00,WeatherDisplay:10.37,2013-08-13 05:01:00,
2013-08-13 01:06:00,76.5,73.0,30.01,North,0,0.0,0.0,89,0.00,SCT,,0.00,WeatherDisplay:10.37,2013-08-13 05:06:00,
2013-08-13 01:11:00,76.3,72.8,30.00,North,0,0.0,0.0,89,0.00,SCT,,0.00,WeatherDisplay:10.37,2013-08-13 05:11:00,
2013-08-13 01:16:00,76.3,72.8,29.99,North,0,0.0,0.0,89,0.00,SCT,,0.00,WeatherDisplay:10.37,2013-08-13 05:16:00,
2013-08-13 01:21:00,76.3,72.8,30.00,North,0,0.0,0.0,89,0.00,SCT,,0.00,WeatherDisplay:10.37,2013-08-13 05:21:00,
2013-08-13 01:26:00,76.1,73.0,30.00,North,0,0.0,0.0,90,0.00,SCT,,0.00,WeatherDisplay:10.37,2013-08-13 05:26:00,
2013-08-13 01:31:00,75.9,72.8,30.00,North,0,0.0,0.0,90,0.00,SCT,,0.00,WeatherDisplay:10.37,2013-08-13 05:31:00,
2013-08-13 01:36:00,75.9,72.8,30.00,North,0,0.0,0.0,90,0.00,SCT,,0.00,WeatherDisplay:10.37,2013-08-13 05:36:00,
2013-08-13 01:41:00,75.9,72.8,30.00,North,0,0.0,0.0,90,0.00,SCT,,0.00,WeatherDisplay:10.37,2013-08-13 05:41:00,
2013-08-13 01:46:00,75.9,72.8,30.00,North,0,0.0,0.0,90,0.00,SCT,,0.00,WeatherDisplay:10.37,2013-08-13 05:46:00,
2013-08-13 01:51:00,75.9,73.1,30.00,North,0,0.0,0.0,91,0.00,SCT,,0.00,WeatherDisplay:10.37,2013-08-13 05:51:00,
2013-08-13 01:56:00,75.9,72.8,30.00,North,0,0.0,0.0,90,0.00,SCT,,0.00,WeatherDisplay:10.37,2013-08-13 05:56:00,
2013-08-13 02:01:00,75.9,72.8,30.00,North,0,0.0,0.0,90,0.00,SCT,,0.00,WeatherDisplay:10.37,2013-08-13 06:01:00,
2013-08-13 02:06:00,75.7,72.6,29.99,North,0,0.0,0.0,90,0.00,SCT,,0.00,WeatherDisplay:10.37,2013-08-13 06:06:00,
2013-08-13 02:11:00,75.7,72.9,29.99,North,0,0.0,0.0,91,0.00,SCT,,0.00,WeatherDisplay:10.37,2013-08-13 06:11:00,
2013-08-13 02:16:00,75.7,72.9,29.99,North,0,0.0,0.0,91,0.00,SCT,,0.00,WeatherDisplay:10.37,2013-08-13 06:16:00,
2013-08-13 02:21:00,75.6,72.7,29.99,North,0,0.0,0.0,91,0.00,SCT,,0.00,WeatherDisplay:10.37,2013-08-13 06:21:00,
2013-08-13 02:26:00,75.7,73.2,29.99,North,0,0.0,0.0,92,0.00,FEW,,0.00,WeatherDisplay:10.37,2013-08-13 06:26:00,
2013-08-13 02:31:00,75.7,73.2,29.99,North,0,0.0,0.0,92,0.00,FEW,,0.00,WeatherDisplay:10.37,2013-08-13 06:31:00,
2013-08-13 02:36:00,75.6,72.7,30.00,North,0,0.0,0.0,91,0.00,FEW,,0.00,WeatherDisplay:10.37,2013-08-13 06:36:00,
2013-08-13 02:41:00,75.6,72.7,29.99,North,0,0.0,0.0,91,0.00,FEW,,0.00,WeatherDisplay:10.37,2013-08-13 06:41:00,
2013-08-13 02:46:00,75.4,72.6,30.00,North,0,0.0,0.0,91,0.00,FEW,,0.00,WeatherDisplay:10.37,2013-08-13 06:46:00,
2013-08-13 02:51:00,75.4,72.9,29.99,North,0,0.0,0.0,92,0.00,FEW,,0.00,WeatherDisplay:10.37,2013-08-13 06:51:00,
2013-08-13 02:56:00,75.6,73.1,29.99,North,0,0.0,0.0,92,0.00,FEW,,0.00,WeatherDisplay:10.37,2013-08-13 06:56:00,
2013-08-13 03:01:00,75.7,73.2,29.99,North,0,0.0,0.0,92,0.00,FEW,,0.00,WeatherDisplay:10.37,2013-08-13 07:01:00,
2013-08-13 03:06:00,75.7,73.2,29.99,North,0,0.0,0.0,92,0.00,FEW,,0.00,WeatherDisplay:10.37,2013-08-13 07:06:00,
2013-08-13 03:11:00,75.9,73.4,29.99,North,0,0.0,0.0,92,0.00,FEW,,0.00,WeatherDisplay:10.37,2013-08-13 07:11:00,
2013-08-13 03:16:00,75.9,73.4,29.99,North,0,0.0,0.0,92,0.00,FEW,,0.00,WeatherDisplay:10.37,2013-08-13 07:16:00,
2013-08-13 03:21:00,76.1,73.6,29.99,North,0,0.0,0.0,92,0.00,FEW,,0.00,WeatherDisplay:10.37,2013-08-13 07:21:00,
2013-08-13 03:26:00,76.3,73.8,29.99,North,0,0.0,0.0,92,0.00,FEW,,0.00,WeatherDisplay:10.37,2013-08-13 07:26:00,
2013-08-13 03:31:00,76.3,73.8,29.99,North,0,0.0,0.0,92,0.00,FEW,,0.00,WeatherDisplay:10.37,2013-08-13 07:31:00,
2013-08-13 03:36:00,76.5,74.0,29.99,North,0,0.0,0.0,92,0.00,FEW,,0.00,WeatherDisplay:10.37,2013-08-13 07:36:00,
2013-08-13 03:41:00,76.6,73.8,29.99,North,0,0.0,0.0,91,0.00,FEW,,0.00,WeatherDisplay:10.37,2013-08-13 07:41:00,
2013-08-13 03:46:00,76.6,73.8,29.99,North,0,0.0,0.0,91,0.00,FEW,,0.00,WeatherDisplay:10.37,2013-08-13 07:46:00,
2013-08-13 03:51:00,76.6,74.1,29.99,North,0,0.0,0.0,92,0.00,FEW,,0.00,WeatherDisplay:10.37,2013-08-13 07:51:00,
2013-08-13 03:56:00,76.5,73.6,29.98,North,0,0.0,0.0,91,0.00,FEW,,0.00,WeatherDisplay:10.37,2013-08-13 07:56:00,
2013-08-13 04:01:00,76.3,73.5,29.98,North,0,0.0,0.0,91,0.00,FEW,,0.00,WeatherDisplay:10.37,2013-08-13 08:01:00,
2013-08-13 04:06:00,76.1,73.6,29.98,North,0,0.0,0.0,92,0.00,FEW,,0.00,WeatherDisplay:10.37,2013-08-13 08:06:00,
2013-08-13 04:11:00,75.9,73.4,29.98,North,0,0.0,0.0,92,0.00,FEW,,0.00,WeatherDisplay:10.37,2013-08-13 08:11:00,
2013-08-13 04:16:00,75.9,73.7,29.98,North,0,0.0,0.0,93,0.00,FEW,,0.00,WeatherDisplay:10.37,2013-08-13 08:16:00,
2013-08-13 04:21:00,75.9,73.7,29.98,North,0,0.0,0.0,93,0.00,FEW,,0.00,WeatherDisplay:10.37,2013-08-13 08:21:00,
2013-08-13 04:26:00,75.7,73.6,29.98,North,0,0.0,0.0,93,0.00,FEW,,0.00,WeatherDisplay:10.37,2013-08-13 08:26:00,
2013-08-13 04:31:00,75.7,73.6,29.98,North,0,0.0,0.0,93,0.00,FEW,,0.00,WeatherDisplay:10.37,2013-08-13 08:31:00,
2013-08-13 04:36:00,75.7,73.6,29.98,North,0,0.0,0.0,93,0.00,FEW,,0.00,WeatherDisplay:10.37,2013-08-13 08:36:00,
2013-08-13 04:41:00,75.4,73.2,29.98,North,0,0.0,0.0,93,0.00,FEW,,0.00,WeatherDisplay:10.37,2013-08-13 08:41:00,
2013-08-13 04:46:00,75.4,73.2,29.98,North,0,0.0,0.0,93,0.00,FEW,,0.00,WeatherDisplay:10.37,2013-08-13 08:46:00,
2013-08-13 04:51:00,75.2,73.0,29.97,North,0,0.0,0.0,93,0.00,FEW,,0.00,WeatherDisplay:10.37,2013-08-13 08:51:00,
2013-08-13 04:56:00,75.0,72.9,29.98,North,0,0.0,0.0,93,0.00,FEW,,0.00,WeatherDisplay:10.37,2013-08-13 08:56:00,
2013-08-13 05:01:00,75.0,73.2,29.97,North,0,0.0,0.0,94,0.00,FEW,,0.00,WeatherDisplay:10.37,2013-08-13 09:01:00,
2013-08-13 05:06:00,74.8,73.0,29.97,North,0,0.0,0.0,94,0.00,FEW,,0.00,WeatherDisplay:10.37,2013-08-13 09:06:00,
2013-08-13 05:11:00,75.0,73.2,29.98,North,0,0.0,0.0,94,0.00,FEW,,0.00,WeatherDisplay:10.37,2013-08-13 09:11:00,
2013-08-13 05:16:00,75.0,73.2,29.98,North,0,0.0,0.0,94,0.00,FEW,,0.00,WeatherDisplay:10.37,2013-08-13 09:16:00,
2013-08-13 05:21:00,75.0,73.2,29.97,North,0,0.0,0.0,94,0.00,FEW,,0.00,WeatherDisplay:10.37,2013-08-13 09:21:00,
2013-08-13 05:26:00,75.0,73.2,29.98,North,0,0.0,0.0,94,0.00,FEW,,0.00,WeatherDisplay:10.37,2013-08-13 09:26:00,
2013-08-13 05:31:00,75.0,73.2,29.98,North,0,0.0,0.0,94,0.00,FEW,,0.00,WeatherDisplay:10.37,2013-08-13 09:31:00,
2013-08-13 05:36:00,75.0,73.2,29.98,North,0,0.0,0.0,94,0.00,FEW,,0.00,WeatherDisplay:10.37,2013-08-13 09:36:00,
2013-08-13 05:41:00,75.0,73.2,29.98,North,0,0.0,0.0,94,0.00,FEW,,0.00,WeatherDisplay:10.37,2013-08-13 09:41:00,
2013-08-13 05:46:00,75.0,73.2,29.98,North,0,0.0,0.0,94,0.00,FEW,,0.00,WeatherDisplay:10.37,2013-08-13 09:46:00,
2013-08-13 05:51:00,75.0,73.2,29.98,North,0,0.0,0.0,94,0.00,FEW,,0.00,WeatherDisplay:10.37,2013-08-13 09:51:00,
2013-08-13 05:56:00,75.2,73.0,29.98,North,0,0.0,0.0,93,0.00,FEW,,0.00,WeatherDisplay:10.37,2013-08-13 09:56:00,
2013-08-13 06:01:00,75.4,73.2,29.98,North,0,0.0,0.0,93,0.00,FEW,,0.00,WeatherDisplay:10.37,2013-08-13 10:01:00,
2013-08-13 06:06:00,75.4,73.2,29.98,North,0,0.0,0.0,93,0.00,FEW,,0.00,WeatherDisplay:10.37,2013-08-13 10:06:00,
2013-08-13 06:11:00,75.4,73.2,29.98,North,0,0.0,0.0,93,0.00,FEW,,0.00,WeatherDisplay:10.37,2013-08-13 10:11:00,
2013-08-13 06:16:00,75.4,73.2,29.98,North,0,0.0,0.0,93,0.00,FEW,,0.00,WeatherDisplay:10.37,2013-08-13 10:16:00,
2013-08-13 06:21:00,75.4,73.2,29.98,North,0,0.0,0.0,93,0.00,FEW,,0.00,WeatherDisplay:10.37,2013-08-13 10:21:00,
2013-08-13 06:26:00,75.0,73.2,29.98,North,0,0.0,0.0,94,0.00,FEW,,0.00,WeatherDisplay:10.37,2013-08-13 10:26:00,
2013-08-13 06:31:00,75.0,73.2,29.99,North,0,0.0,0.0,94,0.00,FEW,,0.00,WeatherDisplay:10.37,2013-08-13 10:31:00,
2013-08-13 06:36:00,74.8,73.0,29.98,North,0,0.0,0.0,94,0.00,FEW,,0.00,WeatherDisplay:10.37,2013-08-13 10:36:00,
2013-08-13 06:41:00,75.0,73.2,29.98,North,0,0.0,0.0,94,0.00,FEW,,0.00,WeatherDisplay:10.37,2013-08-13 10:41:00,
2013-08-13 06:46:00,75.0,73.2,29.98,North,0,0.0,0.0,94,0.00,FEW,,0.00,WeatherDisplay:10.37,2013-08-13 10:46:00,
2013-08-13 06:51:00,75.0,73.2,29.99,North,0,0.0,0.0,94,0.00,FEW,,0.00,WeatherDisplay:10.37,2013-08-13 10:51:00,
2013-08-13 06:56:00,74.8,73.0,29.98,North,0,0.0,0.0,94,0.00,FEW,,0.00,WeatherDisplay:10.37,2013-08-13 10:56:00,
2013-08-13 07:01:00,75.0,73.5,29.98,North,0,0.0,0.0,95,0.00,FEW,,0.00,WeatherDisplay:10.37,2013-08-13 11:01:00,
2013-08-13 07:06:00,75.0,73.5,29.98,North,0,0.0,0.0,95,0.00,FEW,,0.00,WeatherDisplay:10.37,2013-08-13 11:06:00,
2013-08-13 07:11:00,75.0,73.5,29.98,North,0,0.0,0.0,95,0.00,FEW,,0.00,WeatherDisplay:10.37,2013-08-13 11:11:00,
2013-08-13 07:16:00,75.0,73.5,29.98,North,0,0.0,0.0,95,0.00,FEW,,0.00,WeatherDisplay:10.37,2013-08-13 11:16:00,
2013-08-13 07:21:00,75.2,73.7,29.98,North,0,0.0,0.0,95,0.00,FEW,,0.00,WeatherDisplay:10.37,2013-08-13 11:21:00,
2013-08-13 07:26:00,75.4,73.8,29.98,North,0,0.0,0.0,95,0.00,BKN,,0.00,WeatherDisplay:10.37,2013-08-13 11:26:00,
2013-08-13 07:31:00,75.6,74.0,29.98,North,0,0.0,0.0,95,0.00,BKN,,0.00,WeatherDisplay:10.37,2013-08-13 11:31:00,
2013-08-13 07:36:00,75.6,74.0,29.98,North,0,0.0,0.0,95,0.00,BKN,,0.00,WeatherDisplay:10.37,2013-08-13 11:36:00,
2013-08-13 07:41:00,75.7,73.9,29.98,North,0,0.0,0.0,94,0.00,BKN,,0.00,WeatherDisplay:10.37,2013-08-13 11:41:00,
2013-08-13 07:46:00,76.1,74.2,29.98,North,0,0.0,0.0,94,0.00,BKN,,0.00,WeatherDisplay:10.37,2013-08-13 11:46:00,
2013-08-13 07:51:00,76.3,74.1,29.98,North,0,0.0,0.0,93,0.00,BKN,,0.00,WeatherDisplay:10.37,2013-08-13 11:51:00,
2013-08-13 07:56:00,76.6,74.5,29.98,North,0,0.0,0.0,93,0.00,BKN,,0.00,WeatherDisplay:10.37,2013-08-13 11:56:00,
2013-08-13 08:01:00,77.2,74.7,29.98,North,0,0.0,0.0,92,0.00,BKN,,0.00,WeatherDisplay:10.37,2013-08-13 12:01:00,
2013-08-13 08:06:00,77.2,74.7,29.98,North,0,0.0,0.0,92,0.00,BKN,,0.00,WeatherDisplay:10.37,2013-08-13 12:06:00,
2013-08-13 08:11:00,77.5,74.7,29.99,North,0,0.0,0.0,91,0.00,BKN,,0.00,WeatherDisplay:10.37,2013-08-13 12:11:00,
2013-08-13 08:16:00,78.1,74.9,29.99,North,0,0.0,0.0,90,0.00,BKN,,0.00,WeatherDisplay:10.37,2013-08-13 12:16:00,
2013-08-13 08:21:00,78.1,74.6,29.99,North,0,0.0,0.0,89,0.00,BKN,,0.00,WeatherDisplay:10.37,2013-08-13 12:21:00,
2013-08-13 08:26:00,78.4,74.6,29.99,North,0,0.0,0.0,88,0.00,BKN,,0.00,WeatherDisplay:10.37,2013-08-13 12:26:00,
2013-08-13 08:31:00,79.0,75.1,29.99,North,0,0.0,0.0,88,0.00,BKN,,0.00,WeatherDisplay:10.37,2013-08-13 12:31:00,
2013-08-13 08:37:00,79.2,75.0,29.99,North,0,0.0,0.0,87,0.00,BKN,,0.00,WeatherDisplay:10.37,2013-08-13 12:37:00,
2013-08-13 08:42:00,79.7,75.5,30.00,North,0,0.0,0.0,87,0.00,BKN,,0.00,WeatherDisplay:10.37,2013-08-13 12:42:00,
2013-08-13 08:46:00,80.2,75.7,30.00,North,0,0.0,0.0,86,0.00,BKN,,0.00,WeatherDisplay:10.37,2013-08-13 12:46:00,
2013-08-13 08:52:00,80.2,75.7,30.00,North,0,0.0,0.0,86,0.00,BKN,,0.00,WeatherDisplay:10.37,2013-08-13 12:52:00,
2013-08-13 08:57:00,80.6,75.7,30.00,North,0,0.0,0.0,85,0.00,BKN,,0.00,WeatherDisplay:10.37,2013-08-13 12:57:00,
2013-08-13 09:02:00,81.0,76.0,30.00,North,0,0.0,0.0,85,0.00,BKN,,0.00,WeatherDisplay:10.37,2013-08-13 13:02:00,
2013-08-13 09:07:00,80.8,75.8,30.00,North,0,0.0,1.2,85,0.00,BKN,,0.00,WeatherDisplay:10.37,2013-08-13 13:07:00,
2013-08-13 09:12:00,81.1,76.2,30.00,North,0,0.0,0.0,85,0.00,BKN,,0.00,WeatherDisplay:10.37,2013-08-13 13:12:00,
2013-08-13 09:17:00,82.0,77.1,30.00,North,0,0.0,0.0,85,0.00,BKN,,0.00,WeatherDisplay:10.37,2013-08-13 13:17:00,
2013-08-13 09:22:00,82.0,77.1,30.00,North,0,0.0,0.0,85,0.00,BKN,,0.00,WeatherDisplay:10.37,2013-08-13 13:22:00,
2013-08-13 09:27:00,82.6,77.3,30.00,North,0,0.0,0.0,84,0.00,SCT,,0.00,WeatherDisplay:10.37,2013-08-13 13:27:00,
2013-08-13 09:32:00,82.8,77.4,30.00,North,0,0.0,0.0,84,0.00,SCT,,0.00,WeatherDisplay:10.37,2013-08-13 13:32:00,
2013-08-13 09:37:00,82.9,77.6,30.00,North,0,0.0,0.0,84,0.00,SCT,,0.00,WeatherDisplay:10.37,2013-08-13 13:37:00,
2013-08-13 09:42:00,83.5,78.1,30.00,North,0,0.0,0.0,84,0.00,SCT,,0.00,WeatherDisplay:10.37,2013-08-13 13:42:00,
2013-08-13 09:47:00,83.8,77.8,30.00,North,0,0.0,0.0,82,0.00,SCT,,0.00,WeatherDisplay:10.37,2013-08-13 13:47:00,
2013-08-13 09:52:00,83.8,78.1,30.00,North,0,0.0,0.0,83,0.00,SCT,,0.00,WeatherDisplay:10.37,2013-08-13 13:52:00,
2013-08-13 09:57:00,83.8,77.8,30.00,North,0,0.0,0.0,82,0.00,SCT,,0.00,WeatherDisplay:10.37,2013-08-13 13:57:00,
2013-08-13 10:02:00,84.2,78.1,30.00,North,0,0.0,0.0,82,0.00,SCT,,0.00,WeatherDisplay:10.37,2013-08-13 14:02:00,
2013-08-13 10:07:00,84.6,78.5,30.00,North,0,0.0,0.0,82,0.00,SCT,,0.00,WeatherDisplay:10.37,2013-08-13 14:07:00,
2013-08-13 10:11:00,84.9,78.1,30.00,North,0,0.0,0.0,80,0.00,SCT,,0.00,WeatherDisplay:10.37,2013-08-13 14:11:00,
2013-08-13 10:16:00,85.5,78.6,29.99,North,0,0.0,0.0,80,0.00,SCT,,0.00,WeatherDisplay:10.37,2013-08-13 14:16:00,
2013-08-13 10:21:00,85.5,78.6,29.99,North,0,0.0,0.0,80,0.00,SCT,,0.00,WeatherDisplay:10.37,2013-08-13 14:21:00,
2013-08-13 10:26:00,86.0,78.7,29.99,North,0,0.0,0.0,79,0.00,FEW,,0.00,WeatherDisplay:10.37,2013-08-13 14:26:00,
2013-08-13 10:31:00,86.5,79.2,29.99,North,0,0.0,0.0,79,0.00,FEW,,0.00,WeatherDisplay:10.37,2013-08-13 14:31:00,
2013-08-13 10:37:00,86.9,79.2,29.99,North,0,0.0,0.0,78,0.00,FEW,,0.00,WeatherDisplay:10.37,2013-08-13 14:37:00,
2013-08-13 10:41:00,88.2,79.6,30.00,North,0,0.0,0.0,76,0.00,FEW,,0.00,WeatherDisplay:10.37,2013-08-13 14:41:00,
2013-08-13 10:46:00,89.2,80.3,29.99,North,0,0.0,0.0,75,0.00,FEW,,0.00,WeatherDisplay:10.37,2013-08-13 14:46:00,
2013-08-13 10:51:00,89.6,80.2,30.00,North,0,0.0,0.0,74,0.00,FEW,,0.00,WeatherDisplay:10.37,2013-08-13 14:51:00,
2013-08-13 10:57:00,90.1,79.9,30.00,North,0,0.0,0.0,72,0.00,FEW,,0.00,WeatherDisplay:10.37,2013-08-13 14:57:00,
2013-08-13 11:02:00,91.0,80.3,29.99,North,0,0.0,0.0,71,0.00,FEW,,0.00,WeatherDisplay:10.37,2013-08-13 15:02:00,
2013-08-13 11:07:00,91.9,80.7,30.00,North,0,0.0,0.0,70,0.00,FEW,,0.00,WeatherDisplay:10.37,2013-08-13 15:07:00,
2013-08-13 11:12:00,92.5,80.8,30.00,SE,135,0.0,0.0,69,0.00,FEW,,0.00,WeatherDisplay:10.37,2013-08-13 15:12:00,
2013-08-13 11:17:00,93.4,80.8,30.00,SE,135,0.0,0.0,67,0.00,FEW,,0.00,WeatherDisplay:10.37,2013-08-13 15:17:00,
2013-08-13 11:22:00,94.1,81.0,30.00,SE,135,0.0,0.0,66,0.00,FEW,,0.00,WeatherDisplay:10.37,2013-08-13 15:22:00,
2013-08-13 11:27:00,94.8,80.7,30.00,SE,135,0.0,0.0,64,0.00,FEW,,0.00,WeatherDisplay:10.37,2013-08-13 15:27:00,
2013-08-13 11:32:00,95.4,80.8,30.00,SE,135,0.0,0.0,63,0.00,FEW,,0.00,WeatherDisplay:10.37,2013-08-13 15:32:00,
2013-08-13 11:37:00,95.9,80.8,29.99,East,90,0.0,0.0,62,0.00,FEW,,0.00,WeatherDisplay:10.37,2013-08-13 15:37:00,
2013-08-13 11:42:00,94.8,80.7,30.00,NE,45,0.0,0.0,64,0.00,FEW,,0.00,WeatherDisplay:10.37,2013-08-13 15:42:00,
2013-08-13 11:51:00,95.0,79.9,30.00,North,0,0.0,0.0,62,0.00,FEW,,0.00,WeatherDisplay:10.37,2013-08-13 15:51:00,
2013-08-13 11:56:00,93.9,79.4,29.99,North,0,0.0,2.6,63,0.00,FEW,,0.00,WeatherDisplay:10.37,2013-08-13 15:56:00,
2013-08-13 12:01:00,94.1,79.6,29.99,North,0,3.0,3.0,63,0.00,FEW,,0.00,WeatherDisplay:10.37,2013-08-13 16:01:00,
2013-08-13 12:06:00,94.3,79.3,29.98,North,0,0.0,0.0,62,0.00,FEW,,0.00,WeatherDisplay:10.37,2013-08-13 16:06:00,
2013-08-13 12:11:00,95.7,80.6,29.98,North,0,0.0,0.0,62,0.00,FEW,,0.00,WeatherDisplay:10.37,2013-08-13 16:11:00,
2013-08-13 12:16:00,95.5,80.4,29.98,North,0,0.0,0.0,62,0.00,FEW,,0.00,WeatherDisplay:10.37,2013-08-13 16:16:00,
2013-08-13 12:21:00,96.8,79.6,29.98,NW,315,0.0,0.0,58,0.00,FEW,,0.00,WeatherDisplay:10.37,2013-08-13 16:21:00,
2013-08-13 12:26:00,96.6,80.4,29.98,North,0,0.0,0.0,60,0.00,SCT,,0.00,WeatherDisplay:10.37,2013-08-13 16:26:00,
2013-08-13 12:31:00,97.2,81.5,29.98,NW,315,1.5,1.5,61,0.00,SCT,,0.00,WeatherDisplay:10.37,2013-08-13 16:31:00,
2013-08-13 12:36:00,96.4,79.8,29.97,North,0,0.0,2.3,59,0.00,SCT,,0.00,WeatherDisplay:10.37,2013-08-13 16:36:00,
2013-08-13 12:41:00,94.8,80.3,29.97,North,0,0.0,0.0,63,0.00,SCT,,0.00,WeatherDisplay:10.37,2013-08-13 16:41:00,
2013-08-13 12:46:00,93.9,80.4,29.97,North,0,0.0,0.0,65,0.00,SCT,,0.00,WeatherDisplay:10.37,2013-08-13 16:46:00,
2013-08-13 12:51:00,95.0,79.4,29.97,North,0,0.0,1.3,61,0.00,SCT,,0.00,WeatherDisplay:10.37,2013-08-13 16:51:00,
2013-08-13 12:56:00,94.8,79.8,29.96,North,0,0.0,0.0,62,0.00,SCT,,0.00,WeatherDisplay:10.37,2013-08-13 16:56:00,
2013-08-13 13:01:00,94.5,79.9,29.96,North,0,0.0,0.0,63,0.00,SCT,,0.00,WeatherDisplay:10.37,2013-08-13 17:01:00,
2013-08-13 13:06:00,93.7,80.2,29.96,North,0,0.0,0.0,65,0.00,SCT,,0.00,WeatherDisplay:10.37,2013-08-13 17:06:00,
2013-08-13 13:12:00,94.5,80.9,29.96,North,0,0.0,0.0,65,0.00,SCT,,0.00,WeatherDisplay:10.37,2013-08-13 17:12:00,
2013-08-13 13:17:00,96.4,81.8,29.96,North,0,0.0,0.0,63,0.00,SCT,,0.00,WeatherDisplay:10.37,2013-08-13 17:17:00,
2013-08-13 13:22:00,97.2,80.4,29.96,North,0,0.0,0.0,59,0.00,SCT,,0.00,WeatherDisplay:10.37,2013-08-13 17:22:00,
2013-08-13 13:27:00,95.7,80.1,29.96,North,0,0.0,0.0,61,0.00,SCT,,0.00,WeatherDisplay:10.37,2013-08-13 17:27:00,
2013-08-13 13:32:00,94.6,79.6,29.96,North,0,0.0,0.0,62,0.00,SCT,,0.00,WeatherDisplay:10.37,2013-08-13 17:32:00,
2013-08-13 13:37:00,95.9,81.3,29.96,North,0,0.0,0.0,63,0.00,SCT,,0.00,WeatherDisplay:10.37,2013-08-13 17:37:00,
2013-08-13 13:42:00,95.4,79.8,29.96,North,0,0.0,0.0,61,0.00,SCT,,0.00,WeatherDisplay:10.37,2013-08-13 17:42:00,
2013-08-13 13:47:00,94.1,80.1,29.96,North,0,0.0,0.0,64,0.00,SCT,,0.00,WeatherDisplay:10.37,2013-08-13 17:47:00,
2013-08-13 13:52:00,95.9,80.8,29.96,North,0,0.0,0.0,62,0.00,SCT,,0.00,WeatherDisplay:10.37,2013-08-13 17:52:00,
2013-08-13 13:57:00,96.1,80.4,29.96,North,0,0.0,0.0,61,0.00,SCT,,0.00,WeatherDisplay:10.37,2013-08-13 17:57:00,
2013-08-13 14:02:00,97.0,79.7,29.96,North,0,0.0,0.0,58,0.00,SCT,,0.00,WeatherDisplay:10.37,2013-08-13 18:02:00,
2013-08-13 14:07:00,97.2,80.4,29.95,North,0,0.0,0.0,59,0.00,SCT,,0.00,WeatherDisplay:10.37,2013-08-13 18:07:00,
2013-08-13 14:12:00,96.6,80.4,29.96,North,0,0.0,0.0,60,0.00,SCT,,0.00,WeatherDisplay:10.37,2013-08-13 18:12:00,
2013-08-13 14:17:00,95.2,80.6,29.95,North,0,0.0,2.4,63,0.00,SCT,,0.00,WeatherDisplay:10.37,2013-08-13 18:17:00,
2013-08-13 14:22:00,94.3,79.3,29.95,North,0,0.0,0.0,62,0.00,SCT,,0.00,WeatherDisplay:10.37,2013-08-13 18:22:00,
2013-08-13 14:27:00,93.9,78.4,29.95,North,0,0.0,0.0,61,0.00,SCT,,0.00,WeatherDisplay:10.37,2013-08-13 18:27:00,
2013-08-13 14:32:00,94.5,79.9,29.95,NW,315,0.0,2.3,63,0.00,SCT,,0.00,WeatherDisplay:10.37,2013-08-13 18:32:00,
2013-08-13 14:37:00,95.0,78.9,29.95,West,270,0.0,0.0,60,0.00,SCT,,0.00,WeatherDisplay:10.37,2013-08-13 18:37:00,
2013-08-13 14:42:00,95.0,79.9,29.95,West,270,0.0,0.0,62,0.00,SCT,,0.00,WeatherDisplay:10.37,2013-08-13 18:42:00,
2013-08-13 14:47:00,95.5,79.4,29.95,West,270,0.0,0.0,60,0.00,SCT,,0.00,WeatherDisplay:10.37,2013-08-13 18:47:00,
2013-08-13 14:52:00,95.4,79.3,29.94,West,270,0.0,0.0,60,0.00,SCT,,0.00,WeatherDisplay:10.37,2013-08-13 18:52:00,
2013-08-13 14:57:00,95.0,78.9,29.94,West,270,0.0,0.0,60,0.00,SCT,,0.00,WeatherDisplay:10.37,2013-08-13 18:57:00,
2013-08-13 15:02:00,93.9,77.9,29.93,West,270,0.0,0.0,60,0.00,SCT,,0.00,WeatherDisplay:10.37,2013-08-13 19:02:00,
2013-08-13 15:07:00,93.4,78.4,29.93,West,270,0.0,1.3,62,0.00,SCT,,0.00,WeatherDisplay:10.37,2013-08-13 19:07:00,
2013-08-13 15:12:00,93.4,77.9,29.93,SW,225,0.0,1.2,61,0.00,SCT,,0.00,WeatherDisplay:10.37,2013-08-13 19:12:00,
2013-08-13 15:17:00,93.0,78.1,29.93,SW,225,0.0,0.0,62,0.00,SCT,,0.00,WeatherDisplay:10.37,2013-08-13 19:17:00,
2013-08-13 15:22:00,92.3,77.9,29.93,SW,225,0.0,0.0,63,0.00,SCT,,0.00,WeatherDisplay:10.37,2013-08-13 19:22:00,
2013-08-13 15:27:00,91.9,78.5,29.92,SW,225,0.0,0.0,65,0.00,SCT,,0.00,WeatherDisplay:10.37,2013-08-13 19:27:00,
2013-08-13 15:32:00,92.8,77.9,29.92,South,180,0.0,0.0,62,0.00,SCT,,0.00,WeatherDisplay:10.37,2013-08-13 19:32:00,
2013-08-13 15:37:00,92.1,78.2,29.92,South,180,0.0,0.0,64,0.00,SCT,,0.00,WeatherDisplay:10.37,2013-08-13 19:37:00,
2013-08-13 15:42:00,91.9,78.0,29.92,South,180,0.0,0.0,64,0.00,SCT,,0.00,WeatherDisplay:10.37,2013-08-13 19:42:00,
2013-08-13 15:47:00,92.3,78.4,29.92,South,180,0.0,0.0,64,0.00,SCT,,0.00,WeatherDisplay:10.37,2013-08-13 19:47:00,
2013-08-13 15:52:00,92.7,78.2,29.91,South,180,0.0,0.0,63,0.00,SCT,,0.00,WeatherDisplay:10.37,2013-08-13 19:52:00,
2013-08-13 15:57:00,92.8,78.4,29.91,South,180,0.1,0.0,63,0.00,SCT,,0.00,WeatherDisplay:10.37,2013-08-13 19:57:00,
2013-08-13 16:02:00,92.1,78.2,29.91,South,180,0.0,0.0,64,0.00,SCT,,0.00,WeatherDisplay:10.37,2013-08-13 20:02:00,
2013-08-13 16:07:00,92.5,78.0,29.91,South,180,0.0,0.0,63,0.00,SCT,,0.00,WeatherDisplay:10.37,2013-08-13 20:07:00,
2013-08-13 16:12:00,92.5,78.0,29.91,South,180,0.3,2.7,63,0.00,SCT,,0.00,WeatherDisplay:10.37,2013-08-13 20:12:00,
2013-08-13 16:17:00,93.0,78.1,29.90,NW,315,0.0,0.0,62,0.00,SCT,,0.00,WeatherDisplay:10.37,2013-08-13 20:17:00,
2013-08-13 16:22:00,92.7,77.2,29.90,NW,315,0.0,0.0,61,0.00,SCT,,0.00,WeatherDisplay:10.37,2013-08-13 20:22:00,
2013-08-13 16:27:00,92.3,77.4,29.90,NW,315,0.0,0.0,62,0.00,SCT,,0.00,WeatherDisplay:10.37,2013-08-13 20:27:00,
2013-08-13 16:32:00,92.1,77.7,29.90,NW,315,0.0,0.0,63,0.00,SCT,,0.00,WeatherDisplay:10.37,2013-08-13 20:32:00,
2013-08-13 16:37:00,92.5,78.0,29.90,SE,135,0.0,0.0,63,0.00,SCT,,0.00,WeatherDisplay:10.37,2013-08-13 20:37:00,
2013-08-13 16:42:00,92.7,78.2,29.90,SE,135,0.0,0.0,63,0.00,SCT,,0.00,WeatherDisplay:10.37,2013-08-13 20:42:00,
2013-08-13 16:47:00,92.8,76.9,29.90,North,0,2.9,2.9,60,0.00,SCT,,0.00,WeatherDisplay:10.37,2013-08-13 20:47:00,
2013-08-13 16:52:00,92.8,77.4,29.89,North,0,0.0,0.0,61,0.00,SCT,,0.00,WeatherDisplay:10.37,2013-08-13 20:52:00,
2013-08-13 16:57:00,92.7,77.2,29.89,North,0,0.0,0.0,61,0.00,SCT,,0.00,WeatherDisplay:10.37,2013-08-13 20:57:00,
2013-08-13 17:02:00,92.8,77.4,29.89,North,0,0.0,0.0,61,0.00,SCT,,0.00,WeatherDisplay:10.37,2013-08-13 21:02:00,
2013-08-13 17:07:00,92.8,77.4,29.89,North,0,0.0,0.0,61,0.00,SCT,,0.00,WeatherDisplay:10.37,2013-08-13 21:07:00,
2013-08-13 17:12:00,92.8,76.9,29.89,North,0,0.0,0.0,60,0.00,SCT,,0.00,WeatherDisplay:10.37,2013-08-13 21:12:00,
2013-08-13 17:29:00,92.8,76.9,29.89,NW,315,0.0,0.0,60,0.00,SCT,,0.00,WeatherDisplay:10.37,2013-08-13 21:29:00,
2013-08-13 17:34:00,92.8,77.4,29.89,NW,315,0.0,0.0,61,0.00,SCT,,0.00,WeatherDisplay:10.37,2013-08-13 21:34:00,
2013-08-13 17:39:00,92.5,76.6,29.89,North,0,0.0,0.0,60,0.00,SCT,,0.00,WeatherDisplay:10.37,2013-08-13 21:39:00,
2013-08-13 17:44:00,92.7,76.7,29.89,North,0,0.0,0.0,60,0.00,SCT,,0.00,WeatherDisplay:10.37,2013-08-13 21:44:00,
2013-08-13 17:49:00,92.3,76.9,29.88,North,0,0.0,0.0,61,0.00,SCT,,0.00,WeatherDisplay:10.37,2013-08-13 21:49:00,
2013-08-13 17:54:00,92.3,76.9,29.88,North,0,0.0,0.0,61,0.00,SCT,,0.00,WeatherDisplay:10.37,2013-08-13 21:54:00,
2013-08-13 17:59:00,92.1,76.7,29.88,North,0,0.0,0.0,61,0.00,SCT,,0.00,WeatherDisplay:10.37,2013-08-13 21:59:00,
2013-08-13 18:04:00,92.1,77.2,29.88,North,0,0.0,0.0,62,0.00,SCT,,0.00,WeatherDisplay:10.37,2013-08-13 22:04:00,
2013-08-13 18:09:00,91.9,78.0,29.87,North,0,0.0,0.0,64,0.00,SCT,,0.00,WeatherDisplay:10.37,2013-08-13 22:09:00,
2013-08-13 18:10:00,91.9,78.0,29.87,North,0,0.0,0.0,64,0.00,SCT,,0.00,WeatherDisplay:10.37,2013-08-13 22:10:00,
2013-08-13 18:15:00,91.8,77.4,29.87,North,0,0.0,0.0,63,0.00,SCT,,0.00,WeatherDisplay:10.37,2013-08-13 22:15:00,
2013-08-13 18:20:00,91.9,77.1,29.87,North,0,0.0,0.0,62,0.00,FEW,,0.00,WeatherDisplay:10.37,2013-08-13 22:20:00,
2013-08-13 18:25:00,91.9,76.6,29.87,North,0,0.0,0.0,61,0.00,FEW,,0.00,WeatherDisplay:10.37,2013-08-13 22:25:00,
2013-08-13 18:30:00,91.9,77.1,29.87,North,0,0.0,0.0,62,0.00,FEW,,0.00,WeatherDisplay:10.37,2013-08-13 22:30:00,
2013-08-13 18:35:00,91.8,76.9,29.87,North,0,0.0,0.0,62,0.00,FEW,,0.00,WeatherDisplay:10.37,2013-08-13 22:35:00,
2013-08-13 18:40:00,91.8,77.4,29.87,North,0,0.0,0.0,63,0.00,FEW,,0.00,WeatherDisplay:10.37,2013-08-13 22:40:00,
2013-08-13 18:45:00,91.8,76.4,29.87,North,0,0.0,0.0,61,0.00,FEW,,0.00,WeatherDisplay:10.37,2013-08-13 22:45:00,
2013-08-13 18:50:00,91.6,78.1,29.87,North,0,0.0,0.0,65,0.00,FEW,,0.00,WeatherDisplay:10.37,2013-08-13 22:50:00,
2013-08-13 18:55:00,91.2,76.9,29.87,North,0,0.0,0.0,63,0.00,FEW,,0.00,WeatherDisplay:10.37,2013-08-13 22:55:00,
2013-08-13 19:00:00,91.0,77.6,29.87,North,0,0.0,0.0,65,0.00,FEW,,0.00,WeatherDisplay:10.37,2013-08-13 23:00:00,
2013-08-13 19:05:00,91.0,78.1,29.87,North,0,0.0,0.0,66,0.00,FEW,,0.00,WeatherDisplay:10.37,2013-08-13 23:05:00,
2013-08-13 19:10:00,90.5,78.0,29.87,North,0,0.0,0.0,67,0.00,FEW,,0.00,WeatherDisplay:10.37,2013-08-13 23:10:00,
2013-08-13 19:15:00,90.1,78.1,29.87,North,0,0.0,0.0,68,0.00,FEW,,0.00,WeatherDisplay:10.37,2013-08-13 23:15:00,
2013-08-13 19:20:00,89.8,78.2,29.87,North,0,0.0,0.0,69,0.00,FEW,,0.00,WeatherDisplay:10.37,2013-08-13 23:20:00,
2013-08-13 19:25:00,89.2,78.6,29.87,North,0,0.0,0.0,71,0.00,FEW,,0.00,WeatherDisplay:10.37,2013-08-13 23:25:00,
2013-08-13 19:30:00,89.1,78.4,29.87,North,0,0.0,0.0,71,0.00,FEW,,0.00,WeatherDisplay:10.37,2013-08-13 23:30:00,
2013-08-13 19:35:00,88.5,78.3,29.87,North,0,0.0,0.0,72,0.00,FEW,,0.00,WeatherDisplay:10.37,2013-08-13 23:35:00,
2013-08-13 19:40:00,88.0,78.2,29.88,North,0,0.0,0.0,73,0.00,FEW,,0.00,WeatherDisplay:10.37,2013-08-13 23:40:00,
2013-08-13 19:45:00,88.0,78.6,29.88,North,0,0.0,0.0,74,0.00,FEW,,0.00,WeatherDisplay:10.37,2013-08-13 23:45:00,
2013-08-13 19:50:00,87.6,78.3,29.88,North,0,0.0,0.0,74,0.00,FEW,,0.00,WeatherDisplay:10.37,2013-08-13 23:50:00,
2013-08-13 19:55:00,87.4,78.5,29.88,North,0,0.0,0.0,75,0.00,FEW,,0.00,WeatherDisplay:10.37,2013-08-13 23:55:00,
2013-08-13 20:00:00,87.4,78.5,29.88,North,0,0.0,0.0,75,0.00,FEW,,0.00,WeatherDisplay:10.37,2013-08-14 00:00:00,
2013-08-13 20:05:00,86.7,78.2,29.88,North,0,0.0,0.0,76,0.00,FEW,,0.00,WeatherDisplay:10.37,2013-08-14 00:05:00,
2013-08-13 20:10:00,86.4,78.3,29.88,North,0,0.0,0.0,77,0.00,FEW,,0.00,WeatherDisplay:10.37,2013-08-14 00:10:00,
2013-08-13 20:15:00,86.2,78.1,29.88,North,0,0.0,0.0,77,0.00,FEW,,0.00,WeatherDisplay:10.37,2013-08-14 00:15:00,
2013-08-13 20:20:00,85.6,78.0,29.89,North,0,0.0,0.0,78,0.00,FEW,,0.00,WeatherDisplay:10.37,2013-08-14 00:20:00,
2013-08-13 20:25:00,85.6,79.1,29.89,North,0,0.0,0.0,81,0.00,FEW,,0.00,WeatherDisplay:10.37,2013-08-14 00:25:00,
2013-08-13 20:29:00,85.3,78.8,29.89,North,0,0.0,0.0,81,0.00,FEW,,0.00,WeatherDisplay:10.37,2013-08-14 00:29:00,
2013-08-13 20:34:00,85.1,78.6,29.89,North,0,0.0,0.0,81,0.00,FEW,,0.00,WeatherDisplay:10.37,2013-08-14 00:34:00,
2013-08-13 20:39:00,84.9,77.7,29.89,North,0,0.0,0.0,79,0.00,FEW,,0.00,WeatherDisplay:10.37,2013-08-14 00:39:00,
2013-08-13 20:44:00,85.3,78.0,29.89,North,0,0.0,0.0,79,0.00,FEW,,0.00,WeatherDisplay:10.37,2013-08-14 00:44:00,
2013-08-13 20:49:00,85.6,78.0,29.89,North,0,0.0,0.0,78,0.00,FEW,,0.00,WeatherDisplay:10.37,2013-08-14 00:49:00,
2013-08-13 20:54:00,85.6,78.0,29.89,North,0,0.0,0.0,78,0.00,FEW,,0.00,WeatherDisplay:10.37,2013-08-14 00:54:00,
2013-08-13 20:59:00,85.6,78.0,29.89,North,0,0.0,0.0,78,0.00,FEW,,0.00,WeatherDisplay:10.37,2013-08-14 00:59:00,
2013-08-13 21:04:00,85.5,77.8,29.90,North,0,0.0,0.0,78,0.00,FEW,,0.00,WeatherDisplay:10.37,2013-08-14 01:04:00,
2013-08-13 21:09:00,85.1,77.8,29.90,North,0,0.0,0.0,79,0.00,FEW,,0.00,WeatherDisplay:10.37,2013-08-14 01:09:00,
2013-08-13 21:14:00,85.1,77.8,29.90,North,0,0.0,0.0,79,0.00,FEW,,0.00,WeatherDisplay:10.37,2013-08-14 01:14:00,
2013-08-13 21:19:00,85.1,77.8,29.90,North,0,0.0,0.0,79,0.00,FEW,,0.00,WeatherDisplay:10.37,2013-08-14 01:19:00,
2013-08-13 21:24:00,84.9,78.1,29.90,North,0,0.0,0.0,80,0.00,FEW,,0.00,WeatherDisplay:10.37,2013-08-14 01:24:00,
2013-08-13 21:29:00,84.7,78.3,29.90,North,0,0.0,0.0,81,0.00,FEW,,0.00,WeatherDisplay:10.37,2013-08-14 01:29:00,
2013-08-13 21:35:00,84.4,77.9,29.91,North,0,0.0,0.0,81,0.00,FEW,,0.00,WeatherDisplay:10.37,2013-08-14 01:35:00,
2013-08-13 21:40:00,84.4,78.3,29.91,North,0,0.0,0.0,82,0.00,FEW,,0.00,WeatherDisplay:10.37,2013-08-14 01:40:00,
2013-08-13 21:45:00,84.2,78.1,29.91,North,0,0.0,0.0,82,0.00,FEW,,0.00,WeatherDisplay:10.37,2013-08-14 01:45:00,
2013-08-13 21:50:00,84.4,77.9,29.91,North,0,0.0,0.0,81,0.00,FEW,,0.00,WeatherDisplay:10.37,2013-08-14 01:50:00,
2013-08-13 21:55:00,84.2,77.7,29.91,North,0,0.0,0.0,81,0.00,FEW,,0.00,WeatherDisplay:10.37,2013-08-14 01:55:00,
2013-08-13 22:00:00,84.0,77.6,29.91,North,0,0.0,0.0,81,0.00,FEW,,0.00,WeatherDisplay:10.37,2013-08-14 02:00:00,
2013-08-13 22:05:00,84.0,77.6,29.92,North,0,0.0,0.0,81,0.00,FEW,,0.00,WeatherDisplay:10.37,2013-08-14 02:05:00,
2013-08-13 22:10:00,83.8,77.8,29.92,North,0,0.0,0.0,82,0.00,FEW,,0.00,WeatherDisplay:10.37,2013-08-14 02:10:00,
2013-08-13 22:15:00,83.8,77.8,29.92,North,0,0.0,0.0,82,0.00,FEW,,0.00,WeatherDisplay:10.37,2013-08-14 02:15:00,
2013-08-13 22:20:00,83.8,77.8,29.92,North,0,0.0,0.0,82,0.00,FEW,,0.00,WeatherDisplay:10.37,2013-08-14 02:20:00,
2013-08-13 22:25:00,83.7,77.6,29.92,West,270,0.0,0.0,82,0.00,FEW,,0.00,WeatherDisplay:10.37,2013-08-14 02:25:00,
2013-08-13 22:30:00,83.5,77.4,29.93,West,270,0.0,0.0,82,0.00,FEW,,0.00,WeatherDisplay:10.37,2013-08-14 02:30:00,
2013-08-13 22:35:00,83.3,77.2,29.93,West,270,0.0,0.0,82,0.00,FEW,,0.00,WeatherDisplay:10.37,2013-08-14 02:35:00,
2013-08-13 22:40:00,83.1,77.4,29.93,West,270,0.0,0.0,83,0.00,FEW,,0.00,WeatherDisplay:10.37,2013-08-14 02:40:00,
2013-08-13 22:45:00,82.9,77.2,29.93,West,270,0.0,0.0,83,0.00,FEW,,0.00,WeatherDisplay:10.37,2013-08-14 02:45:00,
2013-08-13 22:50:00,82.9,77.2,29.93,West,270,0.0,0.0,83,0.00,FEW,,0.00,WeatherDisplay:10.37,2013-08-14 02:50:00,
2013-08-13 22:55:00,82.8,77.4,29.94,West,270,0.0,0.0,84,0.00,FEW,,0.00,WeatherDisplay:10.37,2013-08-14 02:55:00,
2013-08-13 23:00:00,82.6,77.3,29.94,West,270,0.0,0.0,84,0.00,FEW,,0.00,WeatherDisplay:10.37,2013-08-14 03:00:00,
2013-08-13 23:05:00,82.6,77.6,29.94,West,270,0.0,0.0,85,0.00,FEW,,0.00,WeatherDisplay:10.37,2013-08-14 03:05:00,
2013-08-13 23:10:00,82.2,77.3,29.94,West,270,0.0,0.0,85,0.00,FEW,,0.00,WeatherDisplay:10.37,2013-08-14 03:10:00,
2013-08-13 23:15:00,82.0,77.1,29.94,West,270,0.0,0.0,85,0.00,FEW,,0.00,WeatherDisplay:10.37,2013-08-14 03:15:00,
2013-08-13 23:20:00,82.0,77.1,29.94,West,270,0.0,0.0,85,0.00,FEW,,0.00,WeatherDisplay:10.37,2013-08-14 03:20:00,
2013-08-13 23:25:00,82.0,77.4,29.94,West,270,0.0,0.0,86,0.00,FEW,,0.00,WeatherDisplay:10.37,2013-08-14 03:25:00,
2013-08-13 23:30:00,81.9,77.3,29.95,West,270,0.0,0.0,86,0.00,FEW,,0.00,WeatherDisplay:10.37,2013-08-14 03:30:00,
2013-08-13 23:35:00,81.7,77.1,29.95,West,270,0.0,0.0,86,0.00,FEW,,0.00,WeatherDisplay:10.37,2013-08-14 03:35:00,
2013-08-13 23:40:00,81.5,76.9,29.95,West,270,0.0,0.0,86,0.00,FEW,,0.00,WeatherDisplay:10.37,2013-08-14 03:40:00,
2013-08-13 23:45:00,81.3,76.7,29.95,West,270,0.0,0.0,86,0.00,FEW,,0.00,WeatherDisplay:10.37,2013-08-14 03:45:00,
2013-08-13 23:50:00,81.3,76.7,29.95,West,270,0.0,0.0,86,0.00,FEW,,0.00,WeatherDisplay:10.37,2013-08-14 03:50:00,
2013-08-13 23:55:00,81.3,76.7,29.95,West,270,0.0,0.0,86,0.00,FEW,,0.00,WeatherDisplay:10.37,2013-08-14 03:55:00,